sat.trackr.live / text

‹ back to catalog

STARLINK-36108

NORAD 66868 · 2025-281W

PAYLOAD ACTIVE UNKNOWN

§ Identity

Operator
Country
US
Launch date
2025-12-02
Launch site
AFETR
Launch vehicle
Mass (kg)
RCS (m²)

Purposes: comms

External: N2YO · Heavens-Above · Gunter

§ Orbital elements

Epoch: 2026-05-24T19:26:23.155008Z

Period
94.27 min
Inclination
43.0019°
Eccentricity
0.0001603
Mean motion
15.27595883 rev/d
Perigee alt
481.9 km
Apogee alt
484.1 km
Semi-major
6,861.1 km
B*
6.9953e-4
RAAN
273.8931°
Arg perigee
276.6550°
Mean anomaly
83.4119°
Rev number
2,781

§ Raw data

STARLINK-361081 66868U 25281W   26144.80999022  .00019047  00000+0  69953-3 0  99932 66868  43.0019 273.8931 0001603 276.6550  83.4119 15.27595883 27814

JSON: /api/v1/satellites/66868 · /tle

For live sub-satellite position, see the globe view (requires WebGL).

§ Visibility from observer

Set your observer location to see the next 7 days of passes ≥ 10°. The values pass through the URL so the page stays shareable.

No JS? Fill the form by hand. The geolocation button needs JavaScript.